Tracking 28790 objects as of 19-Apr-2024
HD Live streaming from Space Station
objects crossing your sky now

COSMOS 2251 DEB

Track COSMOS 2251 DEB now!
10-day predictions


NORAD ID: 33920
Int'l Code: 1993-036DZ
Perigee: 716.0 km
Apogee: 787.0 km
Inclination: 74.1 °
Period: 99.7 minutes
Semi major axis: 7122 km
RCS: 0.026 m2 (small)
Launch date: June 16, 1993
Source: Commonwealth of Independent States (former USSR) (CIS)
Launch site: PLESETSK MISSILE AND SPACE COMPLEX (PKMTR)

Note: This is SATELLITE DEBRIS
Your satellite tracking list
Your tracking list is empty




NASA's NSSDC Master Catalog

Two Line Element Set (TLE):
1 33920U 93036DZ  24109.09211310  .00013284  00000-0  38053-2 0  9990
2 33920  74.0689 353.5126 0049853 159.1108 201.2102 14.44289861793545
Source of the keplerian elements: AFSPC